I3LPO-3 Weather Reports


time (UTC)temp
F
wind
direction
speed
knots
gust
knots
rain 1hr
in
rain 24hr
in
rain mn
in
humidity
%
barometer
mb
20260507064722 63 0.0 0.0 0.00 0.00 0.00 40 1014.0
20260507062721 60 0.0 0.0 0.00 0.00 0.00 39 1014.1
20260507060720 56 0.0 0.0 0.00 0.00 0.00 39 1014.2
20260507054718 53 0.0 0.0 0.00 0.00 0.00 39 1014.4
20260507052717 49 0.0 0.0 0.00 0.00 0.00 40 1014.4
20260507050716 48 0.0 0.0 0.00 0.00 0.00 41 1014.4
20260507044714 48 0.0 0.0 0.00 0.00 0.00 41 1014.2
20260507042713 48 0.0 0.0 0.00 0.00 0.00 41 1014.1
20260507040712 48 0.0 0.0 0.00 0.00 0.00 41 1013.9
20260507034711 48 0.0 0.0 0.00 0.00 0.00 41 1013.7
20260507032709 48 0.0 0.0 0.00 0.00 0.00 41 1013.7
20260507030708 49 0.0 0.0 0.00 0.00 0.00 41 1013.7
20260507024707 49 0.0 0.0 0.00 0.00 0.00 41 1013.5
20260507022706 49 0.0 0.0 0.00 0.00 0.00 41 1013.6
20260507020704 49 0.0 0.0 0.00 0.00 0.00 41 1013.7
20260507014703 50 0.0 0.0 0.00 0.00 0.00 41 1013.6
20260507012702 50 0.0 0.0 0.00 0.00 0.00 41 1013.5
20260507010701 50 0.0 0.0 0.00 0.00 0.00 41 1013.5
20260507004659 51 0.0 0.0 0.00 0.00 0.00 41 1013.5
20260507002658 51 0.0 0.0 0.00 0.00 0.00 41 1013.4
20260507000657 51 0.0 0.0 0.00 0.00 0.00 41 1013.4
20260506234656 52 0.0 0.0 0.00 0.00 0.00 41 1013.4
20260506232654 52 0.0 0.0 0.00 0.00 0.00 41 1013.4
20260506230653 52 0.0 0.0 0.00 0.00 0.00 41 1013.3
20260506224652 53 0.0 0.0 0.00 0.00 0.00 41 1013.4
20260506222650 53 0.0 0.0 0.00 0.00 0.00 41 1013.4
20260506220649 53 0.0 0.0 0.00 0.00 0.00 41 1013.3
20260506214648 54 0.0 0.0 0.00 0.00 0.00 41 1013.3
20260506212647 54 0.0 0.0 0.00 0.00 0.00 41 1013.2
20260506210645 54 0.0 0.0 0.00 0.00 0.00 41 1013.2
20260506204643 54 0.0 0.0 0.00 0.00 0.00 41 1013.1
20260506202642 55 0.0 0.0 0.00 0.00 0.00 41 1013.1
20260506200641 55 0.0 0.0 0.00 0.00 0.00 41 1012.9
20260506194639 55 0.0 0.0 0.00 0.00 0.00 41 1012.5
20260506192638 55 0.0 0.0 0.00 0.00 0.00 41 1012.4
20260506190637 55 0.0 0.0 0.00 0.00 0.00 41 1012.3
20260506184636 56 0.0 0.0 0.00 0.00 0.00 41 1011.9
20260506182634 56 0.0 0.0 0.00 0.00 0.00 41 1011.8
20260506180633 56 0.0 0.0 0.00 0.00 0.00 41 1011.6
20260506174632 56 0.0 0.0 0.00 0.00 0.00 41 1011.5
20260506172630 57 0.0 0.0 0.00 0.00 0.00 41 1011.3
20260506170629 57 0.0 0.0 0.00 0.00 0.00 41 1011.1
20260506164628 58 0.0 0.0 0.00 0.00 0.00 41 1011.0
20260506162627 58 0.0 0.0 0.00 0.00 0.00 41 1010.9
20260506160626 58 0.0 0.0 0.00 0.00 0.00 40 1011.0
20260506154624 58 0.0 0.0 0.00 0.00 0.00 41 1011.2
20260506152623 58 0.0 0.0 0.00 0.00 0.00 40 1010.9
20260506150621 58 0.0 0.0 0.00 0.00 0.00 40 1011.0
20260506144620 58 0.0 0.0 0.00 0.00 0.00 40 1011.1
20260506142619 58 0.0 0.0 0.00 0.00 0.00 40 1011.1
20260506140618 58 0.0 0.0 0.00 0.00 0.00 40 1011.4
20260506134616 58 0.0 0.0 0.00 0.00 0.00 40 1011.7
20260506132615 57 0.0 0.0 0.00 0.00 0.00 39 1011.5
20260506130614 55 0.0 0.0 0.00 0.00 0.00 40 1011.8
20260506124613 54 0.0 0.0 0.00 0.00 0.00 40 1012.2
20260506122611 54 0.0 0.0 0.00 0.00 0.00 40 1012.4
20260506120638 54 0.0 0.0 0.00 0.00 0.00 40 1012.4
20260506114637 54 0.0 0.0 0.00 0.00 0.00 40 1012.2
20260506112635 54 0.0 0.0 0.00 0.00 0.00 40 1012.5
20260506110634 54 0.0 0.0 0.00 0.00 0.00 40 1012.6
20260506104634 55 0.0 0.0 0.00 0.00 0.00 40 1012.9
20260506102632 55 0.0 0.0 0.00 0.00 0.00 40 1012.9
20260506100630 54 0.0 0.0 0.00 0.00 0.00 40 1012.9
20260506094629 54 0.0 0.0 0.00 0.00 0.00 40 1012.9
20260506092628 54 0.0 0.0 0.00 0.00 0.00 40 1012.9
20260506090627 55 0.0 0.0 0.00 0.00 0.00 39 1012.9
20260506084625 54 0.0 0.0 0.00 0.00 0.00 39 1012.8
20260506082624 53 0.0 0.0 0.00 0.00 0.00 39 1012.8
20260506080623 53 0.0 0.0 0.00 0.00 0.00 39 1012.7
20260506072620 52 0.0 0.0 0.00 0.00 0.00 39 1012.7
20260506070619 51 0.0 0.0 0.00 0.00 0.00 39 1013.1